Temperature
-2 -2 -2 -2 -2 -2 -2 -2 -2 -2 -2 -2 -2 -1 -1 -1 -1 -1 -1 -1 -1 -0 -0 -0 0 0 0 0 0 1 1 1 2 2 2 3 3 3 3 3 4 4 4
-3 -3 -3 -3 -3 -3 -3 -3 -3 -2 -2 -2 -2 -2 -2 -2 -1 -1 -1 -1 -1 -1 -1 -1 -0 -0 -0 -0 -0 0 1 1 1 1 2 2 2 3 3 3 3 3 3
-4 -4 -4 -4 -4 -4 -3 -3 -3 -3 -3 -3 -3 -3 -2 -2 -2 -2 -2 -2 -2 -1 -1 -1 -1 -1 -1 -1 -0 -0 -0 0 0 1 1 1 1 2 2 2 2 2 3
-4 -4 -4 -4 -4 -4 -4 -4 -4 -4 -4 -3 -3 -3 -3 -3 -3 -3 -2 -2 -2 -2 -2 -2 -1 -1 -1 -1 -1 -1 -1 -1 -0 -0 0 1 1 1 1 1 1 1 2
-5 -5 -5 -5 -5 -5 -4 -4 -4 -4 -4 -4 -4 -4 -4 -3 -3 -3 -3 -3 -3 -2 -2 -2 -2 -2 -2 -2 -2 -1 -1 -1 -1 -1 -1 -0 -0 0 0 0 0 1 1
-5 -5 -5 -5 -5 -5 -5 -5 -5 -5 -5 -5 -5 -4 -4 -4 -4 -4 -4 -4 -3 -3 -3 -3 -3 -2 -2 -2 -2 -2 -2 -2 -2 -1 -1 -1 -1 -0 -0 -0 -0 -0 -0
-6 -6 -6 -6 -6 -5 -5 -5 -5 -5 -5 -5 -5 -5 -5 -4 -4 -4 -4 -4 -4 -4 -4 -4 -3 -3 -3 -3 -2 -2 -2 -2 -2 -2 -2 -1 -1 -1 -1 -1 -1 -1 -1
-7 -7 -6 -6 -6 -6 -6 -6 -6 -6 -6 -6 -6 -5 -5 -5 -5 -5 -5 -5 -5 -4 -4 -4 -4 -4 -3 -3 -3 -3 -3 -3 -2 -2 -2 -2 -2 -1 -1 -1 -2 -2 -2
-7 -7 -7 -7 -7 -7 -7 -6 -6 -6 -6 -6 -6 -6 -6 -5 -5 -5 -5 -5 -5 -5 -5 -5 -5 -4 -4 -4 -4 -4 -3 -3 -3 -3 -3 -2 -2 -2 -2 -3 -2 -3 -2
-8 -8 -8 -8 -7 -7 -7 -7 -7 -7 -7 -7 -6 -6 -6 -6 -6 -6 -6 -6 -6 -6 -5 -5 -5 -5 -5 -4 -4 -4 -4 -3 -3 -3 -3 -3 -3 -3 -3 -3 -3 -3 -3
-8 -8 -8 -8 -8 -8 -8 -8 -7 -7 -7 -7 -7 -7 -7 -6 -6 -6 -6 -6 -6 -6 -6 -6 -5 -5 -5 -5 -5 -5 -4 -4 -4 -4 -4 -3 -3 -3 -3 -3 -3 -3 -3
-9 -9 -8 -8 -8 -8 -8 -8 -8 -8 -8 -8 -8 -7 -7 -7 -7 -7 -7 -7 -7 -7 -6 -6 -6 -6 -5 -5 -5 -5 -5 -5 -5 -5 -4 -4 -4 -4 -4 -4 -4 -4 -4
-9 -9 -9 -9 -9 -9 -9 -9 -9 -9 -9 -9 -9 -8 -8 -8 -8 -8 -7 -7 -7 -7 -7 -7 -7 -7 -6 -6 -6 -6 -5 -5 -5 -5 -5 -5 -5 -5 -5 -5 -5 -5 -5
-10 -10 -9 -9 -9 -9 -9 -10 -10 -10 -10 -9 -9 -9 -9 -9 -8 -8 -8 -8 -7 -8 -8 -7 -7 -7 -7 -7 -6 -6 -6 -6 -6 -6 -6 -5 -5 -5 -5 -5 -5 -5 -5
-10 -10 -10 -10 -10 -10 -10 -10 -10 -10 -10 -10 -10 -10 -10 -9 -9 -9 -9 -8 -8 -8 -8 -8 -8 -8 -8 -7 -7 -7 -7 -7 -7 -6 -6 -6 -6 -6 -6 -6 -6 -6 -6
-11 -11 -11 -11 -11 -11 -10 -10 -10 -11 -11 -10 -10 -10 -10 -10 -10 -9 -9 -9 -9 -8 -8 -9 -9 -9 -9 -8 -8 -8 -8 -7 -7 -7 -7 -7 -7 -6 -6 -6 -6 -6 -6
-11 -11 -11 -11 -11 -11 -11 -11 -11 -10 -10 -11 -11 -11 -10 -10 -10 -10 -10 -9 -9 -9 -9 -9 -9 -9 -9 -9 -9 -9 -8 -8 -8 -8 -7 -7 -7 -7 -7 -7 -7 -7 -6
-12 -12 -12 -12 -12 -12 -12 -12 -11 -11 -11 -11 -11 -11 -11 -11 -10 -10 -10 -10 -10 -10 -10 -10 -10 -10 -10 -10 -9 -9 -9 -9 -9 -8 -8 -8 -8 -8 -8 -7 -7 -7 -7
-12 -12 -12 -12 -12 -12 -12 -12 -12 -12 -12 -11 -11 -11 -11 -11 -11 -11 -11 -11 -11 -11 -11 -11 -11 -11 -10 -10 -10 -10 -10 -9 -9 -9 -9 -9 -9 -8 -8 -8 -8 -8 -8
-13 -13 -13 -13 -13 -12 -12 -12 -12 -12 -12 -12 -12 -12 -12 -12 -12 -11 -11 -12 -12 -12 -11 -11 -11 -11 -11 -11 -10 -10 -10 -10 -10 -10 -10 -9 -9 -9 -9 -9 -9 -8 -8
-13 -13 -13 -13 -13 -13 -13 -13 -13 -13 -13 -13 -13 -13 -13 -13 -13 -12 -12 -12 -12 -12 -12 -12 -11 -11 -11 -11 -11 -11 -11 -10 -10 -10 -10 -10 -10 -10 -9 -9 -9 -9 -9
-14 -14 -14 -14 -14 -14 -14 -14 -14 -14 -14 -13 -13 -13 -13 -13 -13 -13 -13 -13 -13 -12 -12 -12 -12 -12 -11 -11 -11 -11 -11 -11 -11 -11 -11 -11 -10 -10 -10 -10 -10 -10 -9
-14 -14 -14 -14 -14 -14 -14 -14 -14 -14 -14 -14 -14 -14 -14 -14 -13 -13 -13 -13 -13 -13 -13 -12 -12 -12 -12 -12 -12 -12 -12 -11 -11 -11 -11 -11 -11 -11 -10 -10 -10 -10 -10
-15 -15 -15 -15 -15 -15 -14 -14 -14 -14 -14 -14 -14 -14 -14 -14 -14 -14 -14 -13 -13 -13 -13 -13 -13 -12 -12 -12 -12 -12 -12 -12 -12 -12 -12 -11 -11 -11 -11 -11 -11 -10 -10
-15 -15 -15 -15 -15 -15 -15 -15 -15 -15 -15 -15 -14 -14 -14 -14 -14 -14 -14 -14 -14 -13 -13 -13 -13 -13 -13 -13 -12 -12 -12 -12 -12 -12 -12 -12 -12 -12 -11 -11 -11 -11 -11
-15 -15 -15 -15 -15 -15 -15 -15 -15 -15 -15 -15 -15 -15 -15 -14 -14 -14 -14 -14 -14 -14 -14 -13 -13 -13 -13 -13 -13 -13 -13 -12 -12 -12 -12 -12 -12 -12 -12 -12 -12 -12 -12
Wind_Speed
3 3 3 3 3 3 4 4 5 4 4 5 5 5 5 5 5 5 5 5 6 5 5 5 5 5 4 4 4 4 4 4 5 4 2 2 2 3 3 2 3 4 5
4 4 4 4 4 4 4 5 4 5 5 5 5 6 6 5 5 6 6 6 6 7 6 6 6 5 5 5 4 5 4 4 4 5 3 2 3 3 3 2 2 3 4
4 4 4 4 4 4 5 5 5 5 5 5 5 6 6 6 5 6 6 6 6 7 6 7 6 6 6 5 5 5 4 4 3 4 4 3 2 2 2 2 3 2 3
4 4 4 4 4 5 4 4 4 4 4 4 5 5 5 6 6 6 5 6 6 6 6 7 7 7 8 7 6 6 5 4 4 4 4 3 3 3 3 3 3 2 3
4 4 5 4 4 4 4 4 4 4 4 4 4 4 4 5 6 6 6 6 6 6 6 6 7 8 9 8 7 6 6 5 5 5 5 4 4 4 4 3 4 2 3
4 4 4 4 4 4 4 4 4 3 4 4 4 4 4 5 7 8 6 5 6 6 7 7 7 8 10 11 11 10 9 8 7 7 6 6 6 5 4 4 4 3 3
5 4 4 4 4 5 4 4 4 4 4 4 4 4 5 6 8 8 7 5 5 6 7 6 6 7 8 6 8 10 10 12 11 9 8 9 7 6 5 6 5 5 5
5 5 5 4 5 5 4 4 4 3 4 4 5 4 5 6 8 8 8 5 5 6 6 7 7 7 7 7 6 6 7 8 9 9 8 8 7 7 7 6 4 3 3
5 5 5 4 5 5 4 4 3 3 3 4 4 4 4 6 8 8 7 4 5 6 6 6 7 8 10 10 7 7 7 7 9 11 11 10 10 9 7 4 4 4 4
6 6 5 4 5 5 4 4 3 3 3 4 4 3 4 5 7 7 7 4 5 5 5 6 9 9 11 11 8 7 8 7 6 5 7 7 8 8 9 8 7 6 4
6 5 5 4 4 4 3 3 3 3 3 3 4 4 4 5 6 7 7 4 4 4 4 4 5 9 11 11 10 8 10 7 5 6 5 5 4 5 6 7 7 7 6
5 5 5 4 4 3 3 2 2 2 2 2 3 4 3 4 6 6 7 7 6 4 4 4 5 8 9 9 7 8 9 7 4 5 5 5 5 5 5 6 6 6 6
5 5 4 4 3 3 2 2 2 1 1 2 2 3 3 3 4 7 7 7 7 4 3 4 5 5 5 4 5 6 5 4 4 5 5 5 5 4 4 3 3 4 4
5 5 4 4 3 3 3 2 2 2 2 2 3 3 3 3 3 3 3 3 4 3 2 3 4 4 3 2 2 2 2 3 4 5 4 4 3 3 4 4 4 3 2
5 5 5 4 3 3 3 2 2 2 2 2 2 2 2 3 4 5 3 2 1 2 1 1 1 1 1 1 1 1 1 1 3 3 3 3 3 3 3 3 3 3 4
5 5 4 3 3 3 3 3 4 4 5 5 5 4 4 5 6 6 5 4 3 2 0 0 1 1 1 1 1 1 1 1 2 2 3 3 3 4 4 3 3 4 5
4 4 4 3 3 3 3 3 4 5 6 6 7 7 6 6 6 5 5 4 4 3 2 1 1 1 1 1 1 1 1 2 1 2 2 2 3 3 3 3 3 3 4
4 5 4 3 3 3 3 3 3 3 4 5 6 7 7 6 6 5 4 3 3 3 2 1 1 1 1 1 1 1 1 1 1 1 2 2 2 3 3 4 4 4 4
5 3 3 3 3 3 3 3 3 3 3 3 4 5 7 6 6 6 5 3 2 2 2 2 2 2 1 1 1 1 2 1 2 1 2 2 2 3 3 3 3 4 4
5 7 6 4 3 3 3 3 3 3 3 3 3 4 4 4 4 4 4 3 2 2 2 2 2 2 2 2 2 2 1 2 2 2 2 2 2 2 3 4 4 3 3
5 5 7 5 3 3 3 3 3 3 3 3 3 4 5 3 2 3 3 3 2 2 3 3 2 2 2 2 2 2 2 2 2 2 2 2 2 2 3 3 3 3 3
4 4 4 4 3 3 3 3 3 3 3 3 3 4 6 3 3 3 3 3 3 3 3 3 3 2 2 2 2 2 2 2 2 2 2 2 2 2 2 3 3 3 3
4 4 4 3 3 4 4 3 3 3 3 3 3 3 3 3 3 3 3 3 3 3 4 3 3 3 4 4 4 3 3 3 3 2 2 2 2 2 2 3 4 4 3
4 4 4 3 3 3 3 3 3 3 3 3 3 3 3 3 3 3 3 3 4 4 4 4 4 5 6 5 5 5 5 5 4 4 4 3 3 2 2 2 3 4 4
4 4 3 3 3 3 3 3 3 3 3 3 3 3 3 3 3 3 3 3 4 4 5 5 5 5 7 7 7 6 7 6 5 4 4 3 3 3 3 3 3 3 3
4 4 4 3 3 3 3 3 4 4 4 4 4 3 3 3 4 4 4 3 4 4 5 6 6 7 8 8 8 8 8 7 6 6 4 3 3 3 3 3 3 3 3
Wind_Direction
291 287 283 277 273 269 259 255 256 256 255 252 255 251 246 243 241 237 237 235 233 239 243 237 238 235 230 226 225 224 225 219 231 257 265 259 248 241 246 242 237 221 218
283 282 281 278 278 269 267 265 261 259 259 257 256 251 250 248 245 240 239 238 232 234 236 235 237 235 231 230 226 227 223 217 215 237 254 247 251 236 225 228 254 238 233
287 283 283 281 280 275 272 272 266 260 261 261 255 250 252 250 247 246 240 239 236 234 233 233 234 231 233 234 233 226 223 225 216 221 245 249 253 235 223 248 252 261 249
291 282 279 278 278 278 278 277 272 265 260 261 260 255 253 254 249 245 241 241 240 238 235 234 233 230 228 227 234 225 216 216 219 220 234 239 243 234 203 216 248 248 264
290 286 284 285 283 282 283 281 282 280 276 270 266 269 264 253 247 245 243 237 239 240 241 242 240 237 230 231 232 221 210 213 214 218 226 235 235 224 213 213 236 252 270
293 287 292 293 291 287 284 279 280 284 285 280 270 271 270 265 265 256 247 238 237 237 242 244 246 242 239 240 240 233 222 215 215 216 226 225 229 230 222 212 217 237 256
300 295 297 296 295 292 288 284 281 280 280 279 278 275 276 274 272 264 250 246 241 238 239 242 249 247 242 240 241 240 237 235 232 222 219 225 224 217 209 216 218 226 248
309 304 301 299 293 291 286 282 285 284 277 275 276 273 275 273 272 268 257 249 249 245 240 239 244 243 239 237 232 236 237 236 237 232 226 227 226 217 209 217 221 232 262
315 309 301 294 292 288 282 281 281 281 283 282 283 277 271 272 273 271 263 248 249 253 251 247 243 237 240 239 232 234 240 244 246 240 234 232 231 230 221 202 207 216 248
306 302 299 295 285 280 277 275 276 274 276 284 288 288 282 279 279 280 267 243 249 254 255 252 248 243 242 239 227 227 236 240 233 234 230 229 228 226 224 215 210 218 234
304 305 307 304 294 288 281 278 279 277 281 283 288 290 285 287 287 282 276 250 246 253 257 256 252 252 251 249 239 231 237 234 219 219 221 218 216 217 221 221 218 217 225
313 314 314 311 306 309 296 293 286 275 277 286 294 299 296 293 295 291 281 266 265 252 256 258 257 256 254 253 250 239 237 234 218 216 220 221 220 222 219 216 220 229 236
330 326 324 325 324 318 309 309 309 300 292 295 299 300 306 308 304 302 300 283 276 267 261 268 270 266 264 261 253 244 236 219 210 218 223 229 226 219 208 208 216 224 240
336 334 335 336 338 335 332 329 323 312 303 304 303 299 302 315 318 313 305 294 284 279 278 279 288 296 299 300 279 268 239 223 218 220 223 227 217 211 212 209 214 210 230
339 339 341 345 341 336 332 329 326 313 312 308 298 294 302 303 309 318 316 288 273 256 235 232 252 283 291 298 308 287 266 244 238 228 220 219 216 217 223 220 219 215 224
343 342 340 342 342 339 332 330 333 336 334 335 338 333 314 317 321 327 328 328 327 322 295 208 233 254 260 270 275 288 279 260 251 239 222 222 220 219 223 225 220 216 220
335 330 331 337 337 334 332 333 333 337 339 341 341 337 337 341 342 341 341 354 6 19 44 40 356 304 279 276 272 272 276 270 258 243 227 214 213 216 215 219 221 221 221
331 331 334 326 325 327 329 328 328 330 334 335 338 347 353 355 355 355 1 17 17 20 20 356 332 314 296 282 277 278 277 276 259 249 237 223 213 210 213 220 221 220 222
332 327 326 326 328 327 325 326 324 324 329 334 343 351 355 355 358 4 11 25 18 0 351 337 324 318 309 296 282 272 266 265 271 261 250 235 223 213 215 220 222 227 229
336 342 346 344 340 336 334 337 336 335 337 338 339 338 343 354 359 358 1 7 6 350 342 335 322 313 310 301 286 274 271 271 271 275 262 245 240 224 215 215 215 216 224
332 337 344 344 340 335 337 338 335 336 335 330 326 332 349 356 353 352 353 354 346 334 329 325 318 314 307 302 298 284 271 268 266 272 275 260 247 236 218 217 214 214 218
332 333 336 336 337 337 340 336 331 332 333 330 330 338 348 359 353 347 345 343 339 330 317 316 314 306 299 293 285 285 279 274 268 262 262 263 258 248 221 212 216 216 216
335 334 334 334 336 340 344 336 330 328 327 327 328 333 339 341 337 334 334 334 334 326 320 315 311 306 307 302 290 272 270 271 263 249 248 249 246 242 234 219 214 213 219
333 330 328 328 329 329 328 327 324 321 321 321 323 323 323 324 325 324 323 324 321 318 318 315 308 306 307 305 299 289 278 276 269 246 235 235 241 241 238 235 230 220 219
332 327 324 321 319 319 320 320 319 318 317 317 316 315 316 318 321 321 321 319 317 314 314 315 313 312 310 305 298 292 294 294 292 273 241 228 237 238 233 229 231 225 218
333 329 324 322 320 317 315 314 313 312 310 309 309 306 307 309 310 312 315 314 314 311 310 312 311 310 307 304 300 298 299 296 292 292 266 224 223 229 221 217 215 218 216
Height
1468 1467 1466 1465 1465 1465 1464 1464 1464 1464 1464 1464 1464 1464 1465 1465 1466 1467 1467 1468 1469 1471 1472 1474 1475 1477 1479 1480 1482 1483 1485 1486 1486 1485 1488 1490 1492 1494 1495 1497 1499 1501 1504
1464 1463 1462 1461 1461 1460 1459 1459 1459 1459 1459 1459 1459 1459 1460 1460 1461 1461 1462 1463 1464 1465 1467 1469 1470 1472 1473 1475 1476 1478 1479 1481 1482 1481 1482 1485 1487 1489 1490 1492 1494 1496 1498
1460 1459 1458 1457 1456 1455 1455 1454 1454 1454 1454 1454 1454 1454 1454 1455 1455 1456 1457 1458 1459 1460 1462 1463 1465 1467 1468 1469 1471 1472 1474 1475 1477 1477 1478 1480 1482 1484 1485 1487 1489 1490 1492
1456 1455 1454 1453 1452 1451 1451 1450 1449 1449 1448 1448 1449 1449 1449 1450 1450 1451 1451 1453 1454 1455 1456 1458 1459 1461 1462 1464 1465 1467 1468 1470 1471 1473 1473 1475 1476 1478 1480 1481 1483 1484 1486
1452 1451 1450 1449 1448 1447 1446 1445 1445 1444 1443 1444 1444 1444 1444 1445 1445 1446 1446 1447 1448 1449 1451 1452 1454 1455 1456 1458 1460 1461 1462 1464 1466 1467 1468 1470 1471 1473 1474 1476 1477 1479 1480
1448 1447 1446 1445 1444 1443 1442 1441 1440 1439 1439 1439 1439 1439 1439 1439 1440 1441 1441 1442 1443 1444 1445 1446 1448 1449 1450 1452 1453 1455 1457 1459 1460 1462 1462 1464 1465 1467 1469 1471 1473 1473 1474
1444 1442 1442 1441 1439 1439 1438 1437 1436 1435 1435 1435 1434 1434 1434 1434 1435 1436 1437 1437 1438 1438 1439 1440 1441 1443 1445 1446 1447 1449 1450 1452 1455 1457 1457 1458 1460 1462 1464 1466 1467 1468 1469
1440 1438 1437 1436 1435 1434 1433 1432 1432 1431 1431 1430 1430 1430 1430 1430 1431 1431 1432 1433 1433 1433 1434 1435 1436 1437 1438 1440 1441 1442 1444 1445 1447 1449 1451 1452 1455 1457 1459 1460 1461 1463 1464
1436 1434 1433 1432 1431 1430 1429 1428 1428 1427 1427 1426 1426 1426 1426 1426 1426 1427 1427 1428 1428 1428 1429 1429 1430 1431 1432 1434 1436 1436 1437 1438 1441 1443 1445 1447 1449 1451 1453 1455 1456 1458 1457
1432 1430 1429 1428 1427 1426 1425 1424 1424 1423 1423 1423 1422 1422 1422 1421 1422 1422 1423 1423 1423 1423 1423 1424 1424 1425 1427 1428 1429 1430 1430 1432 1434 1436 1438 1440 1442 1444 1447 1449 1450 1452 1452
1428 1426 1425 1424 1423 1422 1422 1421 1420 1420 1419 1419 1418 1418 1418 1418 1418 1418 1418 1419 1418 1418 1418 1419 1419 1420 1422 1423 1424 1424 1425 1427 1428 1430 1432 1434 1436 1438 1440 1442 1444 1446 1446
1425 1423 1421 1420 1420 1419 1418 1417 1417 1416 1416 1415 1414 1414 1413 1413 1413 1413 1413 1414 1414 1414 1414 1414 1415 1416 1416 1417 1418 1418 1420 1422 1423 1425 1426 1427 1429 1431 1433 1435 1437 1439 1440
1422 1419 1418 1417 1416 1415 1415 1414 1413 1413 1412 1411 1411 1410 1409 1409 1409 1409 1409 1410 1410 1410 1410 1410 1411 1411 1412 1412 1412 1413 1414 1416 1417 1419 1420 1422 1424 1426 1428 1429 1431 1432 1434
1419 1417 1415 1414 1413 1412 1412 1411 1410 1410 1409 1409 1408 1407 1407 1406 1406 1406 1406 1406 1406 1406 1406 1407 1407 1407 1407 1407 1407 1408 1409 1411 1413 1414 1415 1417 1419 1420 1422 1423 1425 1426 1427
1418 1416 1414 1412 1411 1410 1410 1409 1408 1408 1408 1407 1406 1405 1404 1403 1404 1404 1403 1402 1402 1402 1403 1403 1403 1402 1402 1402 1403 1403 1405 1406 1408 1409 1410 1412 1413 1415 1416 1418 1419 1420 1421
1417 1415 1413 1411 1410 1409 1408 1407 1407 1406 1406 1405 1404 1403 1402 1402 1402 1401 1401 1400 1400 1400 1400 1399 1399 1399 1399 1399 1399 1400 1400 1402 1403 1404 1405 1406 1408 1409 1411 1412 1413 1415 1415
1417 1415 1413 1411 1409 1408 1407 1405 1404 1404 1404 1403 1401 1401 1400 1399 1399 1398 1398 1398 1397 1397 1396 1396 1396 1396 1396 1396 1396 1397 1397 1398 1399 1400 1400 1401 1403 1404 1406 1407 1408 1409 1410
1416 1414 1412 1410 1408 1407 1405 1404 1403 1401 1400 1400 1399 1398 1397 1397 1397 1396 1396 1395 1394 1394 1394 1394 1394 1394 1393 1393 1393 1394 1394 1394 1395 1395 1396 1397 1398 1399 1400 1401 1403 1404 1405
1415 1413 1411 1409 1407 1406 1405 1403 1402 1401 1399 1398 1397 1396 1396 1395 1395 1394 1393 1393 1392 1392 1392 1392 1392 1392 1391 1391 1391 1391 1391 1391 1392 1392 1392 1393 1393 1394 1395 1396 1398 1399 1400
1414 1412 1410 1408 1406 1405 1403 1402 1400 1399 1398 1397 1396 1395 1394 1393 1392 1392 1392 1391 1391 1391 1391 1390 1390 1390 1389 1389 1389 1389 1389 1389 1389 1389 1389 1389 1389 1389 1390 1391 1393 1394 1395
1413 1411 1409 1407 1405 1404 1402 1401 1399 1398 1397 1396 1395 1394 1393 1392 1391 1391 1390 1390 1389 1389 1389 1389 1388 1388 1388 1387 1387 1387 1387 1386 1386 1387 1386 1386 1386 1386 1386 1388 1389 1390 1391
1413 1410 1408 1406 1404 1403 1401 1400 1399 1397 1396 1395 1394 1393 1392 1391 1390 1390 1389 1389 1388 1388 1388 1387 1387 1386 1385 1385 1385 1385 1384 1384 1384 1384 1384 1384 1383 1383 1383 1384 1385 1386 1387
1412 1410 1407 1405 1404 1402 1401 1399 1398 1396 1395 1394 1393 1392 1391 1390 1389 1388 1387 1387 1386 1386 1386 1385 1384 1384 1383 1383 1383 1383 1382 1381 1382 1382 1381 1381 1380 1380 1380 1381 1382 1382 1383
1411 1409 1407 1405 1403 1401 1400 1398 1397 1395 1394 1393 1391 1390 1389 1388 1387 1386 1386 1385 1385 1384 1383 1383 1382 1381 1381 1380 1380 1380 1379 1379 1379 1379 1378 1378 1377 1377 1377 1377 1378 1378 1379
1410 1408 1406 1404 1402 1400 1398 1397 1395 1394 1393 1391 1390 1389 1387 1386 1385 1385 1384 1383 1382 1381 1380 1380 1379 1378 1378 1377 1377 1376 1376 1376 1376 1375 1375 1374 1374 1373 1374 1374 1374 1375 1375
1409 1407 1404 1402 1400 1398 1397 1395 1393 1392 1391 1389 1388 1387 1386 1384 1383 1382 1381 1380 1379 1378 1377 1376 1376 1375 1374 1374 1373 1373 1373 1372 1372 1372 1371 1371 1371 1371 1371 1371 1371 1372 1372